World > North America > United States > Utah

Wellsville, Utah Regional Weather

Lat: 41.63N, Lon: 111.93W
Wx Zone: UTZ001Web Search

Pass this page to a friend. Tell them to point their camera at the QR Code near the bottom of this page.

Feedback


°F Click to change Wellsville hourly weather to Imperial units.Click to change Wellsville hourly weather to Metric units. °C
Wellsville Weather Map
UTC Time: 4/13/2021, 19:20
Your Time:

Wellsville, UT Regional Weather

Expires:202104132000;;500196
ASUS45 KSLC 131910
RWRUT 

UTAH REGIONAL WEATHER ROUNDUP
NATIONAL WEATHER SERVICE SALT LAKE CITY UT
100 PM MDT TUE APR 13 2021


UTZ001>011-023>025-132000-

NORTHERN UTAH
  
CITY           SKY/WX    TMP DP  RH WIND       PRES   REMARKS
BRIGHAM CITY   SUNNY     52   7  16 E17G31    29.88F                  
HILL AFB       MOSUNNY   49  13  23 E26G39    29.86F                  
LOGAN          MOSUNNY   48  13  24 SE24G36   29.92F                  
OGDEN          MOSUNNY   56  13  18 NE14      29.85F                  
SALT LAKE CITY PTSUNNY   54  15  21 E10       29.85F                  
TOOELE VALLEY  PTSUNNY   50  27  40 N14       29.85F                  
WENDOVER       MOSUNNY   52  14  22 E8        29.87F                  
HEBER CITY     MOCLDY    46  12  25 N7        29.89F                  
WEST JORDAN    PTSUNNY   50  25  38 N13       29.85F                  

$$


SKY/WX - Weather  TMP - Temperature  DP - Dew Point  RH - Relative Humidity
WIND - Wind Direction/Speed PRES - Barometric Pressure VSB - Visibility
WCI - Wind Chill Index E13G22 Wind - East Wind 13 mph/Gusts of 22 mph